This is the latest recevied weather packets stored in our database for station/object KJ4W. If no packets are shown the sender has not sent any weather packets the latest 10 day(s).
| Time | Temp. | Humidity | Pressure | Rain* | Wind** | Luminosity | Snow |
|---|---|---|---|---|---|---|---|
| 1777775344 | 7.78° C | 83% | 1020.3 hPa | 0 mm | - | - | - |
| 1777774446 | 8.33° C | 81% | 1020.1 hPa | 0 mm | - | - | - |
| 1777773545 | 8.89° C | 78% | 1019.9 hPa | 0 mm | - | - | - |
| 1777772645 | 9.44° C | 76% | 1019.9 hPa | 0 mm | - | - | - |
| 1777771744 | 10° C | 73% | 1019.6 hPa | 0 mm | - | - | - |
| 1777770846 | 10.56° C | 69% | 1019.3 hPa | 0 mm | - | - | - |
| 1777769945 | 11.11° C | 67% | 1019.2 hPa | 0 mm | - | - | - |
| 1777769045 | 11.67° C | 64% | 1019.1 hPa | 0 mm | - | - | - |
| 1777768145 | 12.22° C | 63% | 1019 hPa | 0 mm | - | - | - |
| 1777767246 | 12.22° C | 62% | 1019 hPa | 0 mm | - | - | - |
| 1777766345 | 12.78° C | 62% | 1018.8 hPa | 0 mm | - | - | - |
| 1777765445 | 12.78° C | 64% | 1018.6 hPa | 0 mm | - | - | - |
| 1777764544 | 13.33° C | 63% | 1018.6 hPa | 0 mm | - | - | - |
| 1777763644 | 13.33° C | 62% | 1018.6 hPa | 0 mm | - | - | - |
| 1777762745 | 13.89° C | 62% | 1018.5 hPa | 0 mm | - | - | - |
| 1777761844 | 13.89° C | 61% | 1018.4 hPa | 0 mm | - | - | - |
| 1777760946 | 14.44° C | 62% | 1018.3 hPa | 0 mm | - | - | - |
| 1777760046 | 15° C | 57% | 1018.1 hPa | 0 mm | - | - | - |
| 1777759146 | 15° C | 62% | 1018 hPa | 0 mm | - | - | - |
| 1777758245 | 15° C | 60% | 1017.8 hPa | 0 mm | - | - | - |
| 1777757345 | 15° C | 61% | 1017.8 hPa | 0 mm | - | - | - |
| 1777756444 | 15.56° C | 58% | 1017.5 hPa | 0 mm | - | - | - |
| 1777755546 | 16.11° C | 56% | 1017.2 hPa | 0 mm | - | - | - |
| 1777754647 | 17.22° C | 56% | 1017 hPa | 0 mm | - | - | - |
| 1777753746 | 17.22° C | 56% | 1016.9 hPa | 0 mm | - | - | - |
* Rain latest hour (hover to see other rain measurements)
** Current wind speed in m/s (hover to see current wind gust speed)